Regional Weather Roundup
Issued by NWS

Home | Current Version | Previous Version | Graphics & Text | Print | Product List | Glossary On
Versions: 1 2 3 4 5 6 7 8 9 10 11 12 13 14 15 16 17 18 19 20 21 22 23 24 25 26 27 28 29 30 31 32 33 34 35 36 37 38 39 40 41 42 43 44 45 46 47 48 49 50
000
ASUS43 KOAX 151910
RWRNE

WEATHER ROUNDUP FOR NEBRASKA
NATIONAL WEATHER SERVICE OMAHA NE
200 PM CDT TUE APR 15 2014

NOTES: SATELLITE DATA IS BEING USED TO AUGMENT CLOUD COVER ABOVE
       12000 FEET.
       "FAIR" INDICATES FEW OR NO CLOUDS BELOW 12,000 FEET WITH NO
       SIGNIFICANT WEATHER AND/OR OBSTRUCTIONS TO VISIBILITY.

  * THESE STATIONS DO NOT REPORT WEATHER SUCH AS RAIN...SNOW OR FOG.

NEZ001>004-019>022-054>056-152000-
NEBRASKA PANHANDLE

CITY           SKY/WX    TMP DP  RH WIND       PRES   REMARKS
SCOTTSBLUFF    CLOUDY    62  24  23 W24G32    29.79F
ALLIANCE       CLOUDY    57  22  25 W21       29.77F
CHADRON        PTSUNNY   61  27  27 W21G29    29.73F
KIMBALL        CLOUDY    58  23  25 W17       29.83F
SIDNEY         PTSUNNY   60  22  23 W17G26    29.84F
$$

NEZ057>060-069>072-079>082-152000-
SOUTHWEST NEBRASKA

CITY           SKY/WX    TMP DP  RH WIND       PRES   REMARKS
NORTH PLATTE   CLOUDY    60  24  25 SW21G30   29.84F
IMPERIAL       PTSUNNY   61  27  27 SW15      29.86F
LEXINGTON      MOSUNNY   56  31  38 S21       29.89F
MCCOOK         MOSUNNY   62  30  29 S16G25    29.89F
OGALLALA       PTSUNNY   63  23  21 SW18G25   29.82F
$$

NEZ005>010-023>029-035>040-094-152000-
NORTH CENTRAL NEBRASKA

CITY           SKY/WX    TMP DP  RH WIND       PRES   REMARKS
VALENTINE      PTSUNNY   63  21  20 SW15G21   29.73F
AINSWORTH      MOSUNNY   58  24  27 S17G24    29.77F
BROKEN BOW     MOSUNNY   52  30  43 S22       29.86F
O`NEILL        SUNNY     50  21  32 S23G32    29.88F
ORD            SUNNY     50  25  37 S22G31    29.90F
THEDFORD       PTSUNNY   59  24  26 SW17G23   29.79F
$$

NEZ041-046>049-061>064-073>077-083>087-152000-
SOUTH CENTRAL NEBRASKA

CITY           SKY/WX    TMP DP  RH WIND       PRES   REMARKS
GRAND ISLAND   MOSUNNY   54  27  35 S21G28    29.97F
AURORA         SUNNY     52  28  39 S15G24    29.99F
HASTINGS       SUNNY     55  22  27 S16G29    29.96F
HEBRON         SUNNY     55  19  24 S15G23    30.03F
HOLDREGE       SUNNY     56  24  28 S25G31    29.92F
KEARNEY *      MOSUNNY   54  28  37 S21G33    29.93F
YORK           SUNNY     50  30  46 S16G26    30.01F
$$

NEZ011>018-030>034-042>045-152000-
NORTHEAST NEBRASKA

CITY           SKY/WX    TMP DP  RH WIND       PRES   REMARKS
NORFOLK        SUNNY     46  23  40 S20G28    29.99F
ALBION         SUNNY     46  29  50 S20G28    29.97F
BLAIR          SUNNY     44  20  38 S15       30.08F
COLUMBUS *     SUNNY     46  27  46 S16G24    30.03F
FREMONT        SUNNY     47  19  33 SE13G20   30.07F
TEKAMAH        SUNNY     46  21  37 S10G18    30.08F
$$

NEZ050>053-065>068-078-088>093-152000-
SOUTHEAST NEBRASKA

CITY           SKY/WX    TMP DP  RH WIND       PRES   REMARKS
LINCOLN        SUNNY     51  24  34 S16G24    30.07F
OMAHA EPPLEY   MOSUNNY   45  17  32 SE14      30.10F
BEATRICE       SUNNY     52  24  33 S12G21    30.06F
FALLS CITY     SUNNY     50  23  34 S10G16    30.12F
NEBRASKA CITY  SUNNY     47  20  35 S9G18     30.11F
PLATTSMOUTH    SUNNY     47  18  30 SE10      30.09F
$$

NEZ044-045-051>053-067-152000-
OMAHA AREA

CITY           SKY/WX    TMP DP  RH WIND       PRES   REMARKS
OMAHA EPPLEY   MOSUNNY   45  17  32 SE14      30.10F
BLAIR          SUNNY     44  20  38 S15       30.08F
FREMONT        SUNNY     47  19  33 SE13G20   30.07F
MILLARD        SUNNY     46  21  37 SE10G17   30.09F
OFFUTT AFB     SUNNY     47  20  34 S10G17    30.10F
PLATTSMOUTH    SUNNY     47  18  30 SE10      30.09F
WAHOO          FAIR      47  20  34 S12G22    30.07F
$$



USA.gov is the U.S. government's official web portal to all federal, state and local government web resources and services.